Location: *
(49.7500°N, 6.8833°E)
Time: 06:01:48
(UTC+00:00)

Daily predictions for brighter satellites

Satellite Brightness Start Highest point End
(mag) Time Altitude Azimuth Time Altitude Azimuth Time Altitude Azimuth
SL-16 R/B 3.5 18:01:25 10° NNW 18:05:57 24° NE 18:10:27 10° E
Cosmos 1707 3.5 18:02:50 10° N 18:06:26 33° ENE 18:10:01 10° SE
H-2A R/B 3.3 18:03:35 10° ESE 18:07:20 22° ENE 18:11:09 10° N
Cosmos 2219 Rocket 2.3 18:03:26 10° NNW 18:09:05 85° WSW 18:14:41 10° SSE
FREGAT/IRIS 3.6 18:07:21 10° SE 18:09:42 25° ENE 18:12:05 10° NNE
CZ-4C R/B 4.1 18:05:01 10° WNW 18:09:56 28° NNW 18:15:38 10° NE
Okean 2 Rocket 3.9 18:06:54 10° SSW 18:11:19 59° WNW 18:15:48 10° N
Cosmos 1025 Rocket 3.1 18:07:25 10° N 18:11:44 84° W 18:15:59 10° S
CZ-4 R/B 2.8 18:10:02 10° S 18:13:45 42° W 18:17:33 10° NNW
Cosmos 2184 Rocket 4.1 18:08:28 10° N 18:14:44 86° W 18:21:02 10° S
GP-B 3.1 18:13:32 10° N 18:17:58 64° E 18:22:23 10° S
Resurs 01 Rocket 3.5 18:15:51 10° E 18:18:18 15° ENE 18:20:47 10° NNE
Cosmos 1536 Rocket 4.2 18:16:23 10° NNW 18:20:40 59° W 18:24:55 10° S
COSMOS 2428 3.1 18:15:24 10° NNW 18:21:04 70° WSW 18:26:42 10° SSE
NOAA 11 4.2 18:15:59 10° SSE 18:21:29 82° ENE 18:27:00 10° NNW
NOSS 0 Rocket 4.0 18:17:23 10° NNW 18:23:38 80° ENE 18:29:51 10° SE
Meteor 2-15 4.5 18:17:52 10° S 18:24:01 82° E 18:30:13 10° NNE
Meteor 2-15 Rocket 4.4 18:18:14 10° S 18:24:18 69° E 18:30:26 10° NNE
Cosmos 1461 2.8 18:21:59 10° SW 18:25:59 83° NW 18:29:59 10° NE
MONITOR-E 3.9 18:23:23 10° SSE 18:26:08 61° ENE 18:28:56 10° N
SJ-6B 3.7 18:22:29 10° SE 18:26:11 33° ENE 18:29:52 10° N
SAR-Lupe-2 4.3 18:23:03 10° NNE 18:26:19 32° E 18:29:34 10° SSE
SL-8 R/B 3.8 18:22:03 10° WSW 18:26:49 68° SSE 18:31:18 12° E
NOSS 3-4 (A) 3.9 18:21:47 10° NW 18:28:44 85° SW 18:36:22 10° SE
NOSS 3-4 (C) 3.9 18:21:53 10° NW 18:28:50 85° SW 18:36:28 10° SE
COSMOS 2455 4.4 18:23:29 10° NW 18:28:55 36° WSW 18:34:19 10° S
Cosmos 1544 2.9 18:26:01 10° S 18:29:35 72° E 18:33:12 10° NNE
Cosmos 389 Rocket 2.9 18:26:24 10° N 18:29:39 39° ENE 18:32:54 10° SE
YAOGAN 1 4.0 18:25:40 10° S 18:29:45 41° W 18:33:53 10° NNW
Cosmos 614 Rocket 4.1 18:26:00 10° NNW 18:31:10 57° ENE 18:36:16 10° SE
Aureole 1 Rocket 4.3 18:26:26 10° NNW 18:31:31 48° WSW 18:35:24 10° S
DMSP B5D1-3 4.5 18:27:29 10° NNE 18:32:38 86° ESE 18:37:43 10° SSW
Cosmos 1892 Rocket 4.1 18:28:31 10° N 18:32:43 38° ENE 18:36:50 10° SE
Ariane Rocket 3.1 18:28:13 10° SSE 18:33:17 80° WSW 18:38:24 10° NNW
CZ-2D R/B 3.8 18:30:31 10° S 18:34:16 62° W 18:38:04 10° NNW
MOS 1 4.3 18:32:52 10° SSE 18:38:34 77° ENE 18:44:16 10° NNW
NOSS 3-3 (A) 4.4 18:33:22 10° SW 18:39:24 67° NW 18:46:15 10° NE
NOSS 3-3 (C) 4.4 18:33:28 10° SW 18:39:30 68° NW 18:46:21 10° NE
Cosmos 2227 Rocket 3.0 18:35:18 10° SSE 18:40:03 29° ESE 18:44:51 10° NE
ARGOS 3.7 18:35:13 10° SE 18:40:09 38° ENE 18:45:06 10° N
HJ-1C 3.6 18:39:07 10° S 18:42:29 74° WSW 18:45:54 10° NNW
Nadezhda 1 Rocket 3.9 18:36:26 10° S 18:42:30 87° E 18:48:39 10° N
Cosmos 407 Rocket 3.4 18:37:38 10° NNW 18:42:47 72° ENE 18:47:53 10° SSE
Cosmos 2219 3.4 18:37:19 10° S 18:42:48 49° ESE 18:48:19 10° NE
GEOS 3 Rocket 3.7 18:37:59 10° SE 18:43:05 76° SW 18:48:15 10° NW
Cosmos 1939 Rocket 3.5 18:40:21 10° S 18:44:08 56° W 18:47:58 10° NNW
USA 186 2.1 18:41:03 10° SSE 18:44:23 52° ENE 18:47:45 10° N
Cosmos 2056 Rocket 4.0 18:39:35 10° S 18:44:32 38° ESE 18:49:30 10° NE
ADEOS Rocket 4.0 18:37:55 10° NNE 18:44:35 35° E 18:51:32 10° SSE
Lacrosse 5 rocket 2.5 18:43:17 10° S 18:45:51 18° SE 18:46:01 18° SE
Okean 1-7 Rocket 3.7 18:42:18 10° N 18:46:40 53° ENE 18:51:02 10° SSE
Cosmos 1295 Rocket 4.4 18:42:09 10° N 18:48:23 81° E 18:54:30 10° SSE
Cosmos 2297 Rocket 2.7 18:45:25 10° S 18:50:30 36° ESE 18:55:37 10° NE
USA 234 3.9 18:45:47 10° ENE 18:52:08 54° NNW 18:58:29 10° W
Cosmos 1624 Rocket 4.2 18:51:14 10° S 18:56:10 46° ESE 19:01:08 10° NNE
Meteor 1-4 Rocket 2.4 18:56:34 10° N 19:00:07 68° ENE 19:02:40 17° SSE
Meteor 1-15 Rocket 4.3 18:55:06 10° S 19:00:48 64° E 19:06:38 10° NNE
Cosmos 405 Rocket 2.7 18:59:19 10° S 19:02:53 49° E 19:06:30 10° NNE
Cosmos 1140 Rocket 3.4 18:59:15 10° NNW 19:04:27 74° ENE 19:08:26 17° SSE
Cosmos 1437 Rocket 3.2 19:00:54 10° N 19:04:30 37° ENE 19:05:41 29° ESE
Cosmos 1954 Rocket 4.1 18:59:54 10° NNW 19:05:06 58° ENE 19:08:25 22° SE
CZ-2C R/B 3.6 19:04:56 22° ESE 19:07:58 42° ENE 19:13:12 10° N
ASTEX 1 3.4 19:04:16 10° N 19:09:11 86° W 19:14:04 10° S
GENESIS II 4.2 19:05:04 10° NW 19:09:12 90° NE 19:11:21 27° SE
ATLAS 2AS CENTAUR R/B 4.1 19:04:52 10° NW 19:11:51 40° WSW 19:18:18 10° S
In-Cosmos 22 4.1 19:06:35 10° NNW 19:11:59 88° W 19:17:28 10° S
Cosmos 2333 Rocket 4.1 19:09:17 10° NW 19:14:07 29° WSW 19:18:58 10° SSW
Cosmos 1544 Rocket 3.9 19:11:23 15° SSE 19:14:46 44° E 19:19:02 10° NNE
Cosmos 2084 Rocket 3.9 19:10:45 10° SSW 19:14:57 42° SE 19:17:39 20° ENE
Cosmos 1455 Rocket 3.1 19:10:51 10° S 19:15:10 54° E 19:19:32 10° NNE
SPOT 3 Rocket 3.5 19:11:04 10° SSE 19:16:13 85° WSW 19:21:25 10° NNW
Meteor 1-24 Rocket 3.9 19:12:02 10° N 19:17:43 54° ENE 19:21:13 24° SE
Cosmos 2237 Rocket 2.6 19:13:34 10° NW 19:19:13 63° WSW 19:24:31 12° SSE
Cosmos 1674 2.7 19:18:20 10° N 19:22:00 52° ENE 19:22:42 44° ESE
ERBS 2.3 19:19:38 10° NW 19:23:01 71° NNE 19:23:37 54° E
Cosmos 2341 Rocket 4.3 19:20:46 10° NNW 19:26:59 68° W 19:33:08 10° S
ISS -2.7 19:24:07 10° SW 19:26:20 31° S 19:26:20 31° S
Cosmos 1371 Rocket 4.0 19:22:17 10° SSW 19:27:37 88° WNW 19:33:02 10° NNE
Cosmos 1980 4.5 19:23:21 10° NW 19:28:48 50° WSW 19:34:07 10° S
Cosmos 2181 Rocket 3.9 19:23:28 10° S 19:29:43 82° E 19:36:07 10° N
RESURS DK-1 3.2 19:26:33 10° NNW 19:30:21 33° NE 19:30:49 32° ENE
Cosmos 1805 3.3 19:30:39 49° E 19:30:44 49° E 19:34:32 10° NNE
Cosmos 1626 Rocket 3.6 19:28:16 10° N 19:32:31 53° ENE 19:33:19 46° ESE
CZ-2C R/B 4.1 19:30:06 10° N 19:34:32 64° WNW 19:38:54 10° SSW
Cosmos 676 Rocket 4.1 19:32:59 10° NNW 19:38:16 75° WSW 19:41:12 27° S
Cosmos 1452 Rocket 3.8 19:38:51 40° ESE 19:38:52 40° ESE 19:43:45 10° NE
Cosmos 2218 Rocket 4.1 19:37:22 10° N 19:43:48 82° W 19:49:01 16° S
Meteor 2-5 Rocket 3.9 19:38:19 10° NNW 19:44:09 75° W 19:48:44 17° S
Resurs 1-3 3.6 19:42:46 35° S 19:44:35 81° WSW 19:49:00 10° NNW
Cosmos 2366 rocket 4.0 19:39:23 10° N 19:45:48 84° W 19:50:40 18° S
H-2A R/B 2.3 19:42:42 18° S 19:46:20 63° W 19:51:22 10° NNW
Cosmos 864 Rocket 4.5 19:41:44 10° N 19:47:59 85° W 19:52:28 20° S
KORONAS-FOTON 3.6 19:45:15 10° N 19:49:03 86° W 19:49:22 75° S
Transit 2A Rocket 4.5 19:44:39 10° NNW 19:49:07 65° NE 19:49:33 61° E
SL-16 R/B 2.2 19:45:05 10° NNW 19:50:48 85° WSW 19:52:58 40° SSE
Cosmos 1602 Rocket 3.4 19:49:20 10° N 19:53:42 71° ENE 19:53:55 69° ESE
Terra 3.7 19:54:27 17° NE 19:54:27 17° NE 19:56:57 10° NNE
Cosmos 1821 Rocket 4.2 19:48:03 10° N 19:54:02 49° ENE 19:55:10 44° ESE
Resurs 01 Rocket 1.6 19:53:04 51° S 19:54:11 84° WSW 19:58:40 10° NNW
SL-8 Rocket 4.5 19:49:11 10° NNW 19:55:15 59° W 20:01:16 10° S
Meteor 1-22 Rocket 4.3 19:51:41 13° S 19:57:12 77° E 20:03:19 10° NNE
CZ-2C R/B 3.5 19:54:59 10° NNE 19:58:59 34° ENE 19:58:59 34° ENE
CZ-4C R/B 4.2 19:55:17 10° NW 20:00:33 26° NNE 20:05:29 14° ENE
SL-08 RB Rocket 4.2 20:01:13 35° SSW 20:03:02 61° W 20:07:41 10° NNW
SL-14 R/B 4.0 20:02:30 10° N 20:05:29 45° NNE 20:05:29 45° NNE
Cosmos 2082 3.6 20:01:41 10° SSW 20:07:24 80° ESE 20:13:09 10° NNE
SL-8 R/B 3.6 20:04:28 10° W 20:09:16 73° S 20:09:16 73° S
Cosmos 1850 Rocket 3.8 20:05:37 10° NNW 20:10:50 86° ENE 20:11:24 71° SE
MetOp-B 4.0 20:12:35 66° SE 20:13:19 80° ENE 20:18:42 10° NNW
Cosmos 1626 3.6 20:09:40 10° N 20:11:44 30° N 20:11:44 30° N
Cosmos 1766 4.1 20:15:15 43° WSW 20:15:58 50° WNW 20:19:48 10° N
ARGOS 4.4 20:16:39 16° SSW 20:20:25 37° W 20:25:25 10° NNW
Cosmos 2227 Rocket 2.8 20:18:15 10° SW 20:23:48 56° NW 20:29:25 10° NNE
Lacrosse 5 rocket 3.4 20:20:50 10° WSW 20:21:44 17° WSW 20:21:44 17° WSW
ADEOS Rocket 3.9 20:23:12 10° N 20:30:21 62° WNW 20:37:56 10° SW
Cosmos 1420 Rocket 4.2 20:26:13 10° SSW 20:31:30 69° WNW 20:36:50 10° NNE
Cosmos 2297 Rocket 3.2 20:29:01 10° SW 20:34:27 46° NW 20:39:55 10° NNE
USA 234 3.9 20:31:34 29° ENE 20:34:35 49° N 20:40:49 10° WNW
BREEZE M DEB (TANK) 3.5 20:31:39 10° W 20:33:28 42° W 20:33:28 42° W
ERS-1 Rocket 3.4 20:40:43 55° NNE 20:40:43 55° NNE 20:44:48 10° N
Cosmos 1741 Rocket 4.3 20:35:46 10° NNW 20:41:00 59° WSW 20:41:12 58° WSW
Meteor 2-12 Rocket 4.4 20:37:51 10° NNW 20:43:59 80° W 20:44:34 72° SSW
SPOT 1/Viking Rocket 3.8 20:46:26 62° N 20:46:26 62° N 20:50:47 10° NNW
CZ-2C R/B 4.5 20:46:00 26° SW 20:47:56 34° W 20:52:57 10° NNW
Spot 2 Rocket 4.1 20:49:00 48° WSW 20:49:11 48° W 20:54:04 10° NNW
Cosmos 1943 3.4 20:46:52 10° NNW 20:51:54 63° NNE 20:51:54 63° NNE
Meteor 1-21 Rocket 4.3 20:47:36 10° NNW 20:53:20 81° WNW 20:53:20 81° WNW
Cosmos 1934 Rocket 3.9 20:48:58 10° N 20:54:50 81° NNE 20:54:50 81° NNE
SPOT 5 3.9 21:07:32 44° NNW 21:07:32 44° NNW 21:10:58 10° NNW
Cosmos 2285 Rocket 4.5 21:19:09 10° NNW 21:24:29 55° NNE 21:24:29 55° NNE
Terra 3.5 21:33:21 31° NNW 21:33:21 31° NNW 21:35:50 10° NNW
Resurs 01 Rocket 4.5 21:30:38 10° W 21:31:23 11° W 21:32:26 10° WNW
SL-16 R/B 4.4 21:30:52 10° WNW 21:34:03 15° W 21:34:52 15° WSW
Cosmos 1605 Rocket 4.4 21:30:23 10° NNW 21:35:46 62° NW 21:35:46 62° NW
CZ-2C R/B 3.8 21:35:18 10° N 21:40:28 40° WNW 21:40:29 40° WNW
CZ-4C R/B 3.4 21:44:06 10° NW 21:50:38 49° NE 21:50:38 49° NE
Cosmos 2082 Rocket 4.4 22:01:37 10° N 22:05:12 17° NNE 22:05:33 17° NE
USA 234 3.9 22:18:55 52° NW 22:18:55 52° NW 22:23:45 10° WNW
Cosmos 2263 Rocket 4.0 22:33:29 28° N 22:33:29 28° N 22:36:16 10° NNE
SL-16 R/B 4.2 23:39:41 26° NE 23:39:41 26° NE 23:44:30 10° N
CZ-4C R/B 4.2 23:32:37 10° NW 23:35:47 30° NW 23:35:47 30° NW
SJ 16-02 4.5 23:44:15 10° N 23:44:36 12° N 23:44:36 12° N
Cosmos 2082 Rocket 4.1 23:44:56 10° NNW 23:47:21 25° NNW 23:47:21 25° NNW
